Prescott, AZ

10:15 PM MST on October 23, 2017 (GMT -0700)
Love

Weather History for KPRC - October, 2012

Change the Weather History Date:

Wednesday, October 3, 2012

  Actual Average Record
Temperature  
Mean Temperature 70 °F 61 °F  
Max Temperature 86 °F 76 °F 90 °F (1980)
Min Temperature 54 °F 46 °F 35 °F (2002)
Degree Days  
Heating Degree Days 0    
Month to date heating degree days  
Since 1 July heating degree days  
Cooling Degree Days 5    
Month to date cooling degree days  
Year to date cooling degree days  
Growing Degree Days 20 (Base 50)    
Moisture  
Dew Point 29 °F    
Average Humidity 24    
Maximum Humidity 41    
Minimum Humidity 11    
Precipitation  
Precipitation 0.00 in 0.04 in 0.85 in (1968)
Month to date precipitation 0.11  
Year to date precipitation 11.28  
Sea Level Pressure  
Sea Level Pressure 29.92 in    
Wind  
Wind Speed 5 mph (SW)    
Max Wind Speed 15 mph    
Max Gust Speed 28 mph    
Visibility 10 miles    
Events      
T = Trace of Precipitation, MM = Missing Value Source: NWS Daily Summary

Daily Weather History Graph

Daily Weather History Graph

Search for Another Location

Airport or City:

Trip Planner

Search our weather history database for the weather conditions in past years. The results will help you decide how hot, cold, wet, or windy it might be!

Date:

Astronomy

Oct. 03, 2012 Rise Set
Actual Time 6:26 AM MST 6:10 PM MST
Civil Twilight 6:01 AM MST 6:35 PM MST
Nautical Twilight 5:31 AM MST 7:04 PM MST
Astronomical Twilight 5:02 AM MST 7:33 PM MST
Moon 8:15 PM MST (10/3) 9:43 AM MST (10/3)
Length of Visible Light 12h 34m
Length of Day
11h 43m
Waning Gibbous, 88% of the Moon is Illuminated
Oct 3
Waning Gibbous
Oct 8
Last Quarter
Oct 15
New
Oct 21
First Quarter
Oct 29
Full

Hourly Weather History & Observations

Time (MST) Temp. Dew Point Humidity Pressure Visibility Wind Dir Wind Speed Gust Speed Precip Events Conditions
12:53 AM 62.1 °F 25.0 °F 24% 29.87 in 10.0 mi Calm Calm - N/A   Clear
1:53 AM 59.0 °F 28.0 °F 31% 29.88 in 10.0 mi South 5.8 mph - N/A   Clear
2:53 AM 57.0 °F 28.9 °F 34% 29.88 in 10.0 mi South 4.6 mph - N/A   Clear
3:53 AM 57.0 °F 28.0 °F 33% 29.88 in 10.0 mi South 4.6 mph - N/A   Clear
4:53 AM 55.9 °F 30.0 °F 37% 29.90 in 10.0 mi SSW 3.5 mph - N/A   Clear
5:53 AM 54.0 °F 30.9 °F 41% 29.92 in 10.0 mi South 5.8 mph - N/A   Clear
6:53 AM 57.9 °F 28.9 °F 33% 29.93 in 10.0 mi Calm Calm - N/A   Clear
7:53 AM 66.0 °F 28.0 °F 24% 29.94 in 6.0 mi Calm Calm - N/A   Haze
8:53 AM 73.0 °F 30.0 °F 20% 29.95 in 9.0 mi NNE 3.5 mph - N/A   Clear
9:53 AM 81.0 °F 28.9 °F 15% 29.93 in 10.0 mi Calm Calm - N/A   Clear
10:53 AM 84.0 °F 25.0 °F 12% 29.93 in 10.0 mi WSW 13.8 mph 27.6 mph N/A   Clear
11:53 AM 84.9 °F 25.0 °F 11% 29.91 in 10.0 mi West 12.7 mph - N/A   Clear
12:53 PM 86.0 °F 25.0 °F 11% 29.91 in 10.0 mi West 10.4 mph 20.7 mph N/A   Clear
1:53 PM 86.0 °F 25.0 °F 11% 29.90 in 10.0 mi WSW 11.5 mph 21.9 mph N/A   Clear
2:53 PM 84.9 °F 25.0 °F 11% 29.91 in 10.0 mi WSW 12.7 mph 23.0 mph N/A   Clear
3:53 PM 84.0 °F 24.1 °F 11% 29.91 in 10.0 mi SW 10.4 mph - N/A   Clear
4:53 PM 81.0 °F 25.0 °F 13% 29.93 in 10.0 mi SW 15.0 mph - N/A   Clear
5:53 PM 78.1 °F 28.9 °F 17% 29.94 in 10.0 mi SW 8.1 mph - N/A   Clear
6:53 PM 71.1 °F 28.9 °F 21% 29.95 in 10.0 mi SW 5.8 mph - N/A   Clear
7:53 PM 69.1 °F 30.9 °F 24% 29.96 in 10.0 mi SSW 6.9 mph - N/A   Clear
8:53 PM 64.9 °F 35.1 °F 33% 29.96 in 10.0 mi Calm Calm - N/A   Clear
9:53 PM 61.0 °F 36.0 °F 39% 29.97 in 10.0 mi South 4.6 mph - N/A   Clear
10:53 PM 62.1 °F 35.1 °F 37% 29.96 in 10.0 mi SSW 5.8 mph - N/A   Clear
11:53 PM 60.1 °F 35.1 °F 39% 29.96 in 10.0 mi South 6.9 mph - N/A   Clear